Home   Weather   Camagüey   Past weeks
Flag for Cuba

Past Weather in Camagüey, Cuba — Yesterday and Last 2 Weeks

Now
82 °F

Scattered clouds.


Feels Like: 91 °F
Forecast: 88 / 75 °F
Wind: 6 mph from East

Location: Camaguey Aeropuerto

Current Time: Oct 16, 2019 at 10:44:04 am

Latest Report: Oct 16, 2019 at 9:50 am


Visibility: 6 mi

Pressure: 30.01 "Hg

Humidity: 84%

Dew Point: 77 °F

Location of CamagüeyLocation

Past Weather in Camagüey — Graph

°F

Camagüey Temperature Yesterday

Maximum temperature yesterday: 90 °F (at 12:50 pm)
Minimum temperature yesterday: 75 °F (at 1:50 am)
Average temperature yesterday: 80 °F

High & Low Weather Summary for the Past Weeks

 TemperatureHumidityPressure
High90 °F (Oct 8, 3:50 pm)100% (Oct 1, 8:50 am)30.04 "Hg (Oct 1, 8:50 am)
Low72 °F (Oct 2, 4:50 am)55% (Oct 11, 1:50 pm)29.80 "Hg (Oct 1, 2:50 pm)
Average78 °F91%29.92 "Hg
* Reported Oct 1 8:50 am — Oct 16 8:50 am, Camagüey. Weather by CustomWeather, © 2019

Note: Actual official high and low records may vary slightly from our data, if they occured in-between our weather recording intervals... More about our weather records

Advertising

Camagüey Weather History for the Previous 24 Hours

Scroll right to see more
 ConditionsComfort  
Time TempWeatherWind HumidityBarometerVisibility
8:50 am
Wed, Oct 16
79 °FPassing clouds.5 mph100%30.01 "Hg6 mi
7:50 am77 °FPassing clouds.3 mph100%29.98 "Hg5 mi
6:52 am75 °FPassing clouds.3 mph100%29.98 "Hg5 mi
5:51 am75 °FPassing clouds.2 mph100%29.95 "Hg5 mi
4:50 am75 °FFog.1 mph100%29.95 "Hg4 mi
3:54 am75 °FPassing clouds.2 mph100%29.95 "Hg6 mi
2:50 am75 °FPassing clouds.2 mph100%29.95 "Hg6 mi
1:51 am77 °FPassing clouds.6 mph100%29.98 "Hg6 mi
12:50 am77 °FPassing clouds.5 mph100%29.98 "Hg6 mi
11:52 pm
Tue, Oct 15
77 °FClear.1 mph100%29.98 "Hg6 mi
10:52 pm77 °FClear.5 mph100%30.01 "Hg6 mi
9:51 pm77 °FPassing clouds.5 mph100%29.98 "Hg6 mi
8:50 pm79 °FPassing clouds.7 mph94%29.95 "Hg6 mi
7:50 pm79 °FPassing clouds.6 mph94%29.95 "Hg6 mi
6:50 pm81 °FPassing clouds.9 mph89%29.92 "Hg6 mi
5:52 pm84 °FPassing clouds.12 mph79%29.92 "Hg6 mi
4:50 pm88 °FScattered clouds.13 mph70%29.92 "Hg6 mi
3:54 pm90 °FScattered clouds.9 mph59%29.92 "Hg6 mi
2:51 pm88 °FPassing clouds.9 mph62%29.95 "Hg6 mi
1:50 pm88 °FPassing clouds.12 mph70%29.95 "Hg6 mi
12:50 pm90 °FScattered clouds.6 mph67%29.98 "Hg6 mi
11:51 am84 °FScattered clouds.6 mph79%30.01 "Hg6 mi
10:51 am84 °FScattered clouds.5 mph79%30.04 "Hg6 mi
Weather by CustomWeather, © 2019

See weather overview